Location: Passau
(48.5830°N, 13.4830°E)
Time: 21:59:21
(UTC+02:00)

Vanguard 3 - Pass Details

Date: 25 May 2024
Orbit: 509 x 3231 km, 33.3° (Epoch: 16 June)

Event Time Altitude Azimuth Distance (km) Brightness Sun altitude
Rises 17:29:23 0° 190° (S) 3,485 10.6 31.0°
Reaches altitude 10° 17:33:29 10° 161° (SSE) 3,010 10.0 30.4°
Maximum altitude 17:36:23 13° 138° (SE) 3,157 9.9 29.9°
Drops below altitude 10° 17:39:51 10° 116° (ESE) 3,755 10.1 29.3°
Sets 17:46:37 0° 92° (E) 5,488 10.8 28.2°
